Change the Weather History Date:

Thursday, March 15, 2012

  Actual Average Record
Temperature  
Mean Temperature 78 °F -  
Max Temperature 84 °F 86 °F 89 °F (2007)
Min Temperature 73 °F 72 °F 67 °F (2013)
Cooling Degree Days 14    
Growing Degree Days 28 (Base 50)    
Moisture  
Dew Point 75 °F    
Average Humidity 92    
Maximum Humidity 100    
Minimum Humidity 73    
Precipitation  
Precipitation 1.65 in 0.44 in - ()
Sea Level Pressure  
Sea Level Pressure 29.74 in    
Wind  
Wind Speed 5 mph ()    
Max Wind Speed 10 mph    
Max Gust Speed -    
Visibility 5.1 miles    
Events Rain    
Averages and records for this station are not official NWS values.
T = Trace of Precipitation, MM = Missing Value Source: Averaged Metar Reports

Daily Weather History Graph

Daily Weather History Graph

Search for Another Location

Airport or City:

Trip Planner

Search our weather history database for the weather conditions in past years. The results will help you decide how hot, cold, wet, or windy it might be!

Date:

Astronomy

Mar. 15, 2012 Rise Set
Actual Time 6:19 AM AEST 6:31 PM AEST
Civil Twilight 5:58 AM AEST 6:53 PM AEST
Nautical Twilight 5:33 AM AEST 7:18 PM AEST
Astronomical Twilight 5:07 AM AEST 7:43 PM AEST
Moon No Moon Rise 12:52 PM AEST (3/15)
Length of Visible Light 12h 54m
Length of Day
12h 11m
Waning Gibbous, 50% of the Moon is Illuminated
Mar 15
Waning Gibbous
Mar 23
New
Mar 31
First Quarter
Apr 7
Full
Apr 13
Last Quarter

Hourly Weather History & Observations

Time (AEST) Temp. Heat Index Dew Point Humidity Pressure Visibility Wind Dir Wind Speed Gust Speed Precip Events Conditions
12:00 AM 75 °F - 74 °F 97% 29.80 in 5 mi SSE 6.9 mph - -   Overcast
12:00 AM 75.2 °F - 75.2 °F 100% 29.80 in 3.7 mi SSE 6.9 mph - N/A Rain Light Rain Showers
12:25 AM 75.2 °F - 73.4 °F 94% 29.77 in 5.6 mi SSE 8.1 mph - N/A   Mostly Cloudy
12:30 AM 75.2 °F - 73.4 °F 94% 29.77 in 6.2 mi SSE 8.1 mph - N/A   Mostly Cloudy
1:00 AM 75 °F - 74 °F 95% 29.78 in - SSE 1.2 mph - -  
1:00 AM 75.2 °F - 73.4 °F 94% 29.77 in 6.2 mi SSE 1.2 mph - N/A   Mostly Cloudy
1:30 AM 75.2 °F - 73.4 °F 94% 29.74 in 6.2 mi SE 9.2 mph - N/A   Mostly Cloudy
2:00 AM 75.2 °F - 73.4 °F 94% 29.74 in 3.7 mi SSE 8.1 mph - N/A Rain Light Rain Showers
2:29 AM 75.2 °F - 73.4 °F 94% 29.74 in 3.1 mi SSE 5.8 mph - N/A Rain Light Rain Showers
3:00 AM 74 °F - 74 °F 98% 29.75 in 3 mi SE 6.9 mph - -   Overcast
3:00 AM 75.2 °F - 73.4 °F 94% 29.74 in 2.5 mi SE 6.9 mph - N/A Rain Light Rain Showers
3:30 AM 75.2 °F - 73.4 °F 94% 29.74 in 1.9 mi WSW 4.6 mph - N/A Rain Light Rain
3:48 AM 73.4 °F - 73.4 °F 100% 29.74 in 3.7 mi Calm Calm - N/A Rain Light Rain
4:00 AM 74 °F - 73 °F 97% 29.75 in - SSE 4.6 mph - -  
4:00 AM 75.2 °F - 73.4 °F 94% 29.74 in 5.0 mi SSE 4.6 mph - N/A Rain Light Rain
4:13 AM 73.4 °F - 73.4 °F 100% 29.74 in 3.7 mi SSE 1.2 mph - N/A Rain Light Rain
4:30 AM 75.2 °F - 73.4 °F 94% 29.74 in 2.5 mi Calm Calm - N/A Rain Light Rain Showers
5:00 AM 75.2 °F - 73.4 °F 94% 29.74 in 3.7 mi West 3.5 mph - N/A Rain Light Rain
5:30 AM 75.2 °F - 73.4 °F 94% 29.74 in 3.7 mi SE 8.1 mph - N/A Rain Light Rain
6:00 AM 75 °F - 73 °F 93% 29.75 in 9 mi SSE 6.9 mph - - Rain Light Rain
6:00 AM 75.2 °F - 73.4 °F 94% 29.74 in 6.2 mi SSE 6.9 mph - N/A Rain Light Rain
6:30 AM 75.2 °F - 73.4 °F 94% 29.74 in 6.2 mi SE 8.1 mph - N/A Rain Light Rain
7:00 AM 75 °F - 74 °F 95% 29.78 in - South 2.3 mph - -  
7:00 AM 75.2 °F - 73.4 °F 94% 29.77 in 6.2 mi South 2.3 mph - N/A Rain Light Rain
7:30 AM 75.2 °F - 73.4 °F 94% 29.77 in 6.2 mi SW 1.2 mph - N/A   Mostly Cloudy
8:00 AM 75.2 °F - 75.2 °F 100% 29.77 in 6.2 mi North 1.2 mph - N/A   Mostly Cloudy
8:16 AM 77.0 °F - 75.2 °F 94% 29.80 in 3.7 mi Calm Calm - N/A   Light Drizzle
8:24 AM 77.0 °F - 75.2 °F 94% 29.80 in 1.9 mi Calm Calm - N/A Rain Light Rain
8:30 AM 75.2 °F - 75.2 °F 100% 29.80 in 2.5 mi Calm Calm - N/A Rain Light Rain Showers
9:00 AM 76 °F - 75 °F 94% 29.81 in 4 mi Calm Calm - - Rain Light Rain
9:00 AM 75.2 °F - 75.2 °F 100% 29.80 in 3.7 mi Calm Calm - N/A Rain Light Rain
9:30 AM 75.2 °F - 75.2 °F 100% 29.80 in 3.7 mi Calm Calm - N/A Rain Light Rain
10:00 AM 76 °F - 74 °F 94% 29.81 in - SSE 2.3 mph - -  
10:00 AM 75.2 °F - 75.2 °F 100% 29.80 in 3.7 mi SSE 2.3 mph - N/A Rain Light Rain
10:30 AM 77.0 °F - 75.2 °F 94% 29.80 in 6.2 mi SSE 9.2 mph - N/A Rain Light Rain
11:00 AM 77.0 °F - 75.2 °F 94% 29.77 in 6.2 mi SSE 8.1 mph - N/A Rain Light Rain
11:30 AM 78.8 °F - 77.0 °F 94% 29.77 in 6.2 mi SSE 10.4 mph - N/A   Mostly Cloudy
12:00 PM 80 °F - 76 °F 86% 29.76 in 16 mi SSE 8.1 mph - -   Partly Cloudy
12:00 PM 80.6 °F 87.1 °F 77.0 °F 89% 29.74 in 6.2 mi SSE 8.1 mph - N/A   Mostly Cloudy
12:30 PM 82.4 °F 90.9 °F 77.0 °F 84% 29.74 in 6.2 mi South 8.1 mph - N/A   Mostly Cloudy
1:00 PM 82 °F - 75 °F 73% 29.74 in - SSE 8.1 mph - -  
1:00 PM 82.4 °F 89.5 °F 75.2 °F 79% 29.71 in 6.2 mi SSE 8.1 mph - N/A   Mostly Cloudy
1:30 PM 84.2 °F 92.3 °F 75.2 °F 74% 29.71 in 6.2 mi SE 5.8 mph - N/A   Mostly Cloudy
2:00 PM 82.4 °F 89.5 °F 75.2 °F 79% 29.68 in 6.2 mi ENE 8.1 mph - N/A   Mostly Cloudy
2:30 PM 82.4 °F 89.5 °F 75.2 °F 79% 29.68 in 6.2 mi NE 9.2 mph - N/A   Mostly Cloudy
3:00 PM 82 °F - 75 °F 75% 29.68 in 16 mi NE 8.1 mph - -   Partly Cloudy
3:00 PM 82.4 °F 89.5 °F 75.2 °F 79% 29.68 in 6.2 mi NE 8.1 mph - N/A   Mostly Cloudy
3:30 PM 82.4 °F 89.5 °F 75.2 °F 79% 29.68 in 6.2 mi NE 8.1 mph - N/A   Mostly Cloudy
4:00 PM 82 °F - 75 °F 73% 29.68 in - ENE 9.2 mph - -  
4:00 PM 82.4 °F 89.5 °F 75.2 °F 79% 29.68 in 6.2 mi ENE 9.2 mph - N/A   Mostly Cloudy
4:30 PM 80.6 °F 86.2 °F 75.2 °F 84% 29.68 in 6.2 mi ENE 8.1 mph - N/A   Overcast
5:00 PM 80.6 °F 86.2 °F 75.2 °F 84% 29.68 in 6.2 mi East 8.1 mph - N/A   Mostly Cloudy
5:30 PM 80.6 °F 85.4 °F 73.4 °F 79% 29.68 in 6.2 mi ENE 6.9 mph - N/A Rain Light Rain Showers
5:43 PM 78.8 °F - 75.2 °F 89% 29.68 in 3.7 mi ENE 6.9 mph - N/A Rain Light Rain Showers
6:00 PM 79 °F - 76 °F 86% 29.70 in 5 mi East 5.8 mph - -   Overcast
6:00 PM 78.8 °F - 75.2 °F 89% 29.68 in 3.7 mi East 5.8 mph - N/A Rain Light Rain Showers
6:30 PM 78.8 °F - 75.2 °F 89% 29.71 in 3.1 mi ENE 4.6 mph - N/A Rain Light Rain Showers
7:00 PM 78 °F - 75 °F 86% 29.73 in - ESE 4.6 mph - -  
7:00 PM 77.0 °F - 75.2 °F 94% 29.71 in 3.7 mi ESE 4.6 mph - N/A Rain Light Rain Showers
7:30 PM 77.0 °F - 75.2 °F 94% 29.71 in 3.7 mi Calm Calm - N/A Rain Light Rain
8:00 PM 77.0 °F - 75.2 °F 94% 29.71 in 5.6 mi WSW 3.5 mph - N/A Rain Light Rain
8:30 PM 77.0 °F - 75.2 °F 94% 29.74 in 6.2 mi Calm Calm - N/A   Mostly Cloudy
9:00 PM 77 °F - 76 °F 95% 29.75 in 6 mi SW 2.3 mph - - Rain Light Rain
9:00 PM 77.0 °F - 75.2 °F 94% 29.74 in 6.2 mi SW 2.3 mph - N/A Rain Light Rain
9:30 PM 77.0 °F - 75.2 °F 94% 29.74 in 3.7 mi WNW 4.6 mph - N/A Rain Light Rain
10:00 PM 77 °F - 76 °F 94% 29.76 in - SE 5.8 mph - -  
10:00 PM 77.0 °F - 75.2 °F 94% 29.74 in 3.7 mi SE 5.8 mph - N/A Rain Light Rain
10:30 PM 77.0 °F - 75.2 °F 94% 29.74 in 3.1 mi Calm Calm - N/A Rain Light Rain
11:00 PM 75.2 °F - 75.2 °F 100% 29.74 in 1.9 mi WNW 5.8 mph - N/A Rain Rain
11:22 PM 75.2 °F - 75.2 °F 100% 29.74 in 3.1 mi WSW 3.5 mph - N/A Rain Light Rain
11:30 PM 75.2 °F - 75.2 °F 100% 29.74 in 3.7 mi South 4.6 mph - N/A Rain Light Rain
11:53 PM 75.2 °F - 75.2 °F 100% 29.74 in 5.0 mi South 1.2 mph - N/A Rain Light Rain